This is the latest recevied weather packets stored in our database for station/object WJ9H. If no packets are shown the sender has not sent any weather packets the latest 10 day(s).
| Time | Temp. | Humidity | Pressure | Rain* | Wind** | Luminosity | Snow |
|---|---|---|---|---|---|---|---|
| 1788550203 | 29.44° C | - | 1013.6 hPa | 0 mm | - | - | - |
| 1788550149 | 30° C | - | 1013.6 hPa | 0 mm | - | - | - |
| 1788549922 | 30° C | - | 1014.3 hPa | 0 mm | - | - | - |
| 1788549545 | 29.44° C | - | 1013.6 hPa | 0 mm | - | - | - |
| 1788549101 | 30° C | - | 1014.3 hPa | 0 mm | - | - | - |
| 1788548940 | 30° C | - | 1014.3 hPa | 0 mm | - | - | - |
| 1788548346 | 29.44° C | - | 1014.3 hPa | 0 mm | - | - | - |
| 1788547907 | 29.44° C | - | 1014.3 hPa | 0 mm | - | - | - |
| 1788547743 | 29.44° C | - | 1014.6 hPa | 0 mm | - | - | - |
| 1788547611 | 28.33° C | - | 1014.3 hPa | 0 mm | - | - | - |
| 1788547144 | 29.44° C | - | 1014.6 hPa | 0 mm | - | - | - |
| 1788546700 | 28.89° C | - | 1014.3 hPa | 0 mm | - | - | - |
| 1788546548 | 28.33° C | - | 1014.3 hPa | 0 mm | - | - | - |
| 1788545947 | 28.89° C | - | 1014.3 hPa | 0 mm | - | - | - |
| 1788545911 | 28.89° C | - | 1014.3 hPa | 0 mm | - | - | - |
| 1788545500 | 28.89° C | - | 1014.3 hPa | 0 mm | - | - | - |
| 1788545344 | 28.89° C | - | 1014.3 hPa | 0 mm | - | - | - |
| 1788545311 | 28.33° C | - | 1014.3 hPa | 0 mm | - | - | - |
| 1788544744 | 28.33° C | - | 1014.3 hPa | 0 mm | - | - | - |
| 1788544302 | 27.78° C | - | 1013.9 hPa | 0 mm | - | - | - |
| 1788544102 | 26.67° C | - | 1013.9 hPa | 0.25 mm | - | - | - |
| 1788543543 | 26.67° C | - | 1013.9 hPa | 0.25 mm | - | - | - |
| 1788543102 | 25.56° C | - | 1014.6 hPa | 0.51 mm | - | - | - |
| 1788542964 | 24.44° C | - | 1014.6 hPa | 0.51 mm | - | - | - |
| 1788542339 | 24.44° C | - | 1014.6 hPa | 0.51 mm | - | - | - |
* Rain latest hour (hover to see other rain measurements)
** Current wind speed in m/s (hover to see current wind gust speed)